Data for 02/10/2018

Time Sea-Level Adjusted Pressure Absolute Pressure Temperature Relative Humidity Dew Point   
(mb) (inHg) (mb) (inHg) (C) (F) (%) (C) (F)
00:05 1018 30.06 847 25.01 -15.2 4.7 82 -17.6 0.3
00:10 1018 30.06 847 25.01 -15.3 4.5 83 -17.6 0.3
00:15 1018 30.06 847 25.01 -15.3 4.5 81 -17.8 -0
00:20 1018 30.06 847 25.01 -15.3 4.4 82 -17.7 0.1
00:25 1018 30.06 847 25.01 -15.4 4.3 81 -17.9 -0.2
00:30 1018 30.06 847 25.01 -15.5 4.1 82 -18 -0.3
00:35 1018 30.06 847 25.01 -15.4 4.2 83 -17.8 0
00:40 1018 30.06 847 25.01 -15.4 4.3 81 -17.9 -0.2
00:45 1018 30.06 847 25.01 -15.6 4 82 -17.9 -0.2
00:50 1018 30.06 847 25.01 -15.6 4 83 -17.9 -0.2
00:55 1018 30.06 847 25.01 -15.6 3.9 82 -18 -0.4
01:00 1018 30.06 847 25.01 -15.7 3.8 84 -17.8 -0.1
01:05 1018 30.06 847 25.01 -15.4 4.3 82 -17.8 -0
01:10 1018 30.06 847 25.01 -15.4 4.3 82 -17.8 -0
01:15 1018 30.06 847 25.01 -15.4 4.3 82 -17.9 -0.2
01:20 1018 30.06 847 25.01 -15.6 3.8 81 -18.1 -0.6
01:25 1018 30.06 847 25.01 -15.7 3.7 82 -18.1 -0.5
01:30 1017 30.03 847 25.01 -15.7 3.8 82 -18.1 -0.7
01:35 1017 30.03 847 25.01 -15.8 3.6 82 -18.2 -0.8
01:40 1017 30.03 847 25.01 -15.9 3.4 81 -18.4 -1
01:45 1017 30.03 847 25.01 -15.8 3.5 83 -18.1 -0.6
01:50 1017 30.03 847 25.01 -15.7 3.7 81 -18.2 -0.8
01:55 1017 30.03 847 25.01 -15.7 3.8 82 -18.1 -0.5
02:00 1017 30.03 847 25.01 -15.5 4 82 -18 -0.4
02:05 1017 30.03 847 25.01 -15.5 4.2 81 -18 -0.3
02:10 1017 30.03 846 24.98 -15.5 4.2 81 -18 -0.4
02:15 1017 30.03 846 24.98 -15.4 4.2 81 -18 -0.4
02:20 1017 30.03 846 24.98 -15.5 4.1 82 -17.9 -0.2
02:25 1017 30.03 846 24.98 -15.3 4.5 81 -17.8 -0
02:30 1017 30.03 846 24.98 -15.4 4.4 82 -17.8 -0.1
02:35 1017 30.03 846 24.98 -15.5 4.1 82 -17.9 -0.2
02:40 1017 30.03 846 24.98 -15.4 4.3 81 -17.9 -0.2
02:45 1017 30.03 846 24.98 -15.3 4.5 81 -17.9 -0.2
02:50 1017 30.03 846 24.98 -15.3 4.4 81 -17.9 -0.3
02:55 1017 30.03 846 24.98 -15.5 4.1 81 -18 -0.4
03:00 1017 30.03 846 24.98 -15.7 3.8 83 -18 -0.4
03:05 1017 30.03 846 24.98 -15.6 3.9 83 -17.9 -0.3
03:10 1017 30.03 846 24.98 -15.7 3.7 83 -18 -0.4
03:15 1017 30.03 846 24.98 -15.6 3.9 83 -17.9 -0.3
03:20 1017 30.03 846 24.98 -15.6 3.9 83 -17.9 -0.2
03:25 1017 30.03 846 24.98 -15.6 3.9 83 -17.9 -0.1
03:30 1017 30.03 846 24.98 -15.4 4.4 83 -17.6 0.3
03:35 1017 30.03 846 24.98 -15.2 4.7 81 -17.7 0.1
03:40 1017 30.03 846 24.98 -15.2 4.6 82 -17.7 0.1
03:45 1017 30.03 846 24.98 -15.3 4.5 82 -17.7 0.1
03:50 1017 30.03 846 24.98 -15.3 4.5 81 -17.8 -0
03:55 1017 30.03 846 24.98 -15.2 4.6 81 -17.7 0.1
04:00 1017 30.03 846 24.98 -15.3 4.5 81 -17.9 -0.3
04:05 1017 30.03 846 24.98 -15.6 4 81 -18.1 -0.6
04:10 1017 30.03 846 24.98 -15.7 3.8 81 -18.2 -0.7
04:15 1017 30.03 846 24.98 -15.7 3.8 83 -18 -0.4
04:20 1017 30.03 846 24.98 -15.5 4.1 82 -18 -0.3
04:25 1017 30.03 846 24.98 -15.5 4.2 82 -17.9 -0.2
04:30 1017 30.03 846 24.98 -15.5 4.2 82 -17.9 -0.3
04:35 1017 30.03 846 24.98 -15.4 4.2 82 -17.9 -0.2
04:40 1017 30.03 846 24.98 -15.4 4.4 82 -17.8 0
04:45 1017 30.03 846 24.98 -15.4 4.3 82 -17.9 -0.2
04:50 1017 30.03 846 24.98 -15.5 4.1 82 -17.9 -0.1
04:55 1017 30.03 846 24.98 -15.4 4.2 82 -17.8 -0.1
05:00 1017 30.03 846 24.98 -15.4 4.2 82 -17.8 -0
05:05 1017 30.03 846 24.98 -15.3 4.4 81 -17.8 -0.1
05:10 1017 30.03 846 24.98 -15.5 4.2 81 -18 -0.4
05:15 1017 30.03 846 24.98 -15.6 4 82 -18 -0.5
05:20 1017 30.03 846 24.98 -15.6 4 82 -18 -0.4
05:25 1017 30.03 846 24.98 -15.5 4.1 81 -18 -0.4
05:30 1017 30.03 846 24.98 -15.6 4 81 -18.1 -0.6
05:35 1017 30.03 846 24.98 -15.5 4.1 82 -18 -0.3
05:40 1017 30.03 846 24.98 -15.4 4.3 81 -18 -0.3
05:45 1017 30.03 846 24.98 -15.3 4.4 81 -17.9 -0.2
05:50 1017 30.03 846 24.98 -15.2 4.6 80 -17.9 -0.3
05:55 1017 30.03 846 24.98 -15.4 4.4 80 -18 -0.4
06:00 1017 30.03 846 24.98 -15.4 4.3 81 -18 -0.4
06:05 1017 30.03 846 24.98 -15.3 4.4 81 -17.9 -0.3
06:10 1017 30.03 846 24.98 -15.4 4.4 80 -18 -0.5
06:15 1017 30.03 846 24.98 -15.4 4.2 80 -18.1 -0.6
06:20 1017 30.03 846 24.98 -15.5 4.1 81 -18.1 -0.6
06:25 1017 30.03 847 25.01 -15.5 4.1 80 -18.1 -0.7
06:30 1017 30.03 846 24.98 -15.5 4.1 81 -18.1 -0.6
06:35 1017 30.03 847 25.01 -15.4 4.2 80 -18.1 -0.6
06:40 1017 30.03 847 25.01 -15.5 4.2 80 -18.2 -0.8
06:45 1018 30.06 847 25.01 -15.4 4.4 80 -18.1 -0.7
06:50 1018 30.06 847 25.01 -15.2 4.6 80 -17.9 -0.3
06:55 1018 30.06 847 25.01 -15.1 4.8 80 -17.8 -0.1
07:00 1018 30.06 847 25.01 -15.1 4.9 80 -17.8 -0.1
07:05 1018 30.06 847 25.01 -15.1 4.9 80 -17.9 -0.1
07:10 1018 30.06 847 25.01 -14.9 5.3 80 -17.6 0.2
07:15 1018 30.06 847 25.01 -14.6 5.8 80 -17.4 0.7
07:20 1018 30.06 847 25.01 -14.3 6.2 78 -17.5 0.6
07:25 1018 30.06 847 25.01 -14.5 5.9 78 -17.6 0.3
07:30 1018 30.06 847 25.01 -14.6 5.7 77 -17.8 0
07:35 1018 30.06 847 25.01 -14.8 5.4 78 -17.9 -0.2
07:40 1018 30.06 847 25.01 -14.8 5.4 78 -17.8 -0.1
07:45 1018 30.06 847 25.01 -14.7 5.5 78 -17.8 -0.1
07:50 1018 30.06 847 25.01 -14.8 5.4 78 -17.8 -0.1
07:55 1018 30.06 847 25.01 -15.1 4.8 80 -17.9 -0.2
08:00 1018 30.06 847 25.01 -14.9 5.1 81 -17.6 0.4
08:05 1018 30.06 847 25.01 -14.3 6.3 79 -17.2 1
08:10 1018 30.06 847 25.01 -14 6.8 76 -17.3 0.8
08:15 1018 30.06 847 25.01 -13.9 6.9 76 -17.3 0.8
08:20 1018 30.06 847 25.01 -13.9 7 76 -17.4 0.8
08:25 1018 30.06 847 25.01 -14 6.7 75 -17.6 0.3
08:30 1018 30.06 847 25.01 -14.1 6.6 77 -17.4 0.7
08:35 1018 30.06 847 25.01 -13.5 7.7 74 -17.2 1
08:40 1018 30.06 847 25.01 -13.1 8.5 74 -16.8 1.7
08:45 1018 30.06 847 25.01 -12.9 8.9 74 -16.6 2.1
08:50 1018 30.06 847 25.01 -12.8 8.9 72 -16.8 1.7
08:55 1018 30.06 847 25.01 -12.6 9.4 71 -16.7 1.9
09:00 1018 30.06 847 25.01 -11.6 11.1 69 -16.2 2.8
09:05 1018 30.06 847 25.01 -11 12.2 66 -16.3 2.7
09:10 1018 30.06 847 25.01 -10.7 12.8 66 -15.9 3.4
09:15 1018 30.06 847 25.01 -11 12.3 66 -16.2 2.9
09:20 1018 30.06 847 25.01 -11.1 12 67 -16 3.2
09:25 1018 30.06 848 25.04 -11.3 11.6 67 -16.3 2.7
09:30 1018 30.06 848 25.04 -11.5 11.3 70 -16 3.2
09:35 1018 30.06 848 25.04 -11.7 10.9 68 -16.4 2.5
09:40 1018 30.06 848 25.04 -11.5 11.4 68 -16.3 2.7
09:45 1019 30.09 848 25.04 -11.2 11.8 65 -16.5 2.3
09:50 1019 30.09 848 25.04 -11.7 11 68 -16.4 2.4
09:55 1019 30.09 848 25.04 -12 10.4 65 -17.3 0.9
10:00 1019 30.09 848 25.04 -11.6 11.2 63 -17.3 0.8
10:05 1019 30.09 848 25.04 -11.1 12.1 62 -17.1 1.3
10:10 1019 30.09 848 25.04 -10.4 13.2 60 -16.8 1.8
10:15 1019 30.09 848 25.04 -10.7 12.7 62 -16.7 2
10:20 1019 30.09 848 25.04 -10.5 13.1 60 -16.8 1.7
10:25 1019 30.09 848 25.04 -10 14 60 -16.4 2.5
10:30 1019 30.09 848 25.04 -9.5 15 59 -16.2 2.9
10:35 1019 30.09 848 25.04 -9.2 15.4 57 -16.3 2.6
10:40 1019 30.09 848 25.04 -9.7 14.5 58 -16.4 2.4
10:45 1019 30.09 848 25.04 -10 14 59 -16.5 2.3
10:50 1019 30.09 848 25.04 -8.8 16.1 54 -16.5 2.3
10:55 1019 30.09 848 25.04 -8.2 17.3 53 -16 3.1
11:00 1019 30.09 849 25.07 -7.6 18.4 53 -15.5 4.1
11:05 1019 30.09 849 25.07 -7.6 18.4 54 -15.4 4.3
11:10 1019 30.09 849 25.07 -7.9 17.9 55 -15.3 4.4
11:15 1019 30.09 849 25.07 -7.6 18.3 55 -15.2 4.6
11:20 1019 30.09 849 25.07 -7.6 18.3 53 -15.6 3.9
11:25 1019 30.09 849 25.07 -8 17.7 56 -15.4 4.3
11:30 1019 30.09 849 25.07 -8.1 17.5 56 -15.4 4.3
11:35 1019 30.09 848 25.04 -8.5 16.7 57 -15.6 3.9
11:40 1019 30.09 848 25.04 -8.4 17 58 -15.3 4.4
11:45 1019 30.09 848 25.04 -7.9 17.7 55 -15.5 4.2
11:50 1019 30.09 848 25.04 -7.4 18.7 52 -15.5 4.1
11:55 1019 30.09 848 25.04 -6.9 19.5 50 -15.7 3.8
12:00 1019 30.09 848 25.04 -7.1 19.3 53 -15.2 4.7
12:05 1019 30.09 848 25.04 -7.3 19 55 -14.9 5.2
12:10 1019 30.09 848 25.04 -7.4 18.7 55 -15 4.9
12:15 1019 30.09 848 25.04 -7.3 18.9 53 -15.2 4.6
12:20 1019 30.09 848 25.04 -6.9 19.7 54 -14.7 5.5
12:25 1019 30.09 848 25.04 -5.8 21.6 49 -14.8 5.4
12:30 1019 30.09 848 25.04 -5.4 22.4 50 -14.2 6.5
12:35 1019 30.09 848 25.04 -5.9 21.5 53 -13.9 7
12:40 1019 30.09 848 25.04 -5.5 22.1 51 -14.1 6.6
12:45 1019 30.09 848 25.04 -4.9 23.2 51 -13.6 7.6
12:50 1019 30.09 848 25.04 -4.4 24.1 49 -13.7 7.4
12:55 1018 30.06 848 25.04 -4.6 23.7 50 -13.6 7.6
13:00 1018 30.06 848 25.04 -4.6 23.8 50 -13.4 7.9
13:05 1018 30.06 848 25.04 -4.1 24.6 48 -13.5 7.8
13:10 1018 30.06 847 25.01 -4.5 23.9 50 -13.5 7.7
13:15 1018 30.06 847 25.01 -5.8 21.6 52 -14.1 6.5
13:20 1018 30.06 847 25.01 -5.5 22.2 51 -14.2 6.4
13:25 1018 30.06 847 25.01 -4 24.8 48 -13.5 7.6
13:30 1018 30.06 847 25.01 -3.5 25.7 45 -13.7 7.4
13:35 1018 30.06 847 25.01 -3.2 26.3 43 -14 6.7
13:40 1018 30.06 847 25.01 -3.1 26.4 44 -13.8 7.2
13:45 1018 30.06 847 25.01 -3 26.5 44 -13.7 7.3
13:50 1018 30.06 847 25.01 -3.7 25.4 46 -13.8 7.2
13:55 1018 30.06 847 25.01 -3.6 25.6 46 -13.5 7.7
14:00 1018 30.06 847 25.01 -3.8 25.1 48 -13.3 8.1
14:05 1018 30.06 847 25.01 -3.8 25.1 48 -13.3 8.1
14:10 1018 30.06 847 25.01 -3.4 25.9 45 -13.6 7.5
14:15 1018 30.06 847 25.01 -3.5 25.7 47 -13.4 7.9
14:20 1018 30.06 847 25.01 -3.5 25.7 47 -13.4 8
14:25 1018 30.06 847 25.01 -3.5 25.7 46 -13.4 7.8
14:30 1018 30.06 847 25.01 -3.6 25.5 46 -13.7 7.3
14:35 1018 30.06 847 25.01 -4.9 23.2 52 -13.2 8.2
14:40 1018 30.06 847 25.01 -4.7 23.6 47 -14.4 6.1
14:45 1018 30.06 847 25.01 -5.1 22.8 51 -13.7 7.4
14:50 1018 30.06 847 25.01 -4.5 23.9 48 -14 6.8
14:55 1018 30.06 847 25.01 -3.9 25.1 46 -13.9 6.9
15:00 1018 30.06 847 25.01 -3.5 25.8 44 -14.1 6.6
15:05 1018 30.06 847 25.01 -3.3 26.1 44 -14 6.8
15:10 1017 30.03 847 25.01 -3.8 25.1 47 -13.6 7.5
15:15 1017 30.03 847 25.01 -3.9 24.9 48 -13.5 7.6
15:20 1017 30.03 847 25.01 -3.6 25.4 47 -13.4 7.9
15:25 1017 30.03 847 25.01 -3.6 25.6 47 -13.4 7.9
15:30 1017 30.03 847 25.01 -3.9 24.9 48 -13.4 7.9
15:35 1017 30.03 846 24.98 -3.8 25.1 47 -13.5 7.6
15:40 1017 30.03 846 24.98 -4.1 24.6 49 -13.4 7.8
15:45 1017 30.03 846 24.98 -4 24.7 49 -13.3 8
15:50 1017 30.03 846 24.98 -4.3 24.3 50 -13.3 8
15:55 1017 30.03 846 24.98 -4.3 24.3 49 -13.5 7.6
16:00 1017 30.03 846 24.98 -4.7 23.6 51 -13.3 8.1
16:05 1017 30.03 846 24.98 -4.8 23.3 51 -13.6 7.5
16:10 1017 30.03 846 24.98 -5.2 22.6 52 -13.5 7.7
16:15 1017 30.03 846 24.98 -5.6 21.9 54 -13.5 7.8
16:20 1017 30.03 846 24.98 -5.9 21.3 55 -13.7 7.3
16:25 1017 30.03 846 24.98 -6.3 20.7 56 -13.7 7.3
16:30 1017 30.03 846 24.98 -7 19.4 56 -14.3 6.2
16:35 1017 30.03 846 24.98 -7.9 17.9 58 -14.8 5.4
16:40 1017 30.03 846 24.98 -8.8 16.1 61 -15.1 4.8
16:45 1017 30.03 846 24.98 -9.4 15.1 62 -15.3 4.5
16:50 1017 30.03 846 24.98 -9.8 14.3 63 -15.6 3.9
16:55 1017 30.03 846 24.98 -10.2 13.6 65 -15.7 3.7
17:00 1017 30.03 846 24.98 -10.5 13.1 66 -15.8 3.6
17:05 1017 30.03 846 24.98 -10.7 12.8 66 -15.8 3.5
17:10 1017 30.03 847 25.01 -10.8 12.6 66 -15.9 3.4
17:15 1017 30.03 846 24.98 -11 12.2 67 -15.9 3.3
17:20 1017 30.03 846 24.98 -11.1 12.1 68 -15.9 3.4
17:25 1017 30.03 846 24.98 -11.1 12 68 -15.9 3.3
17:30 1017 30.03 847 25.01 -11.2 11.8 68 -16 3.2
17:35 1017 30.03 846 24.98 -11.4 11.4 69 -16 3.2
17:40 1017 30.03 846 24.98 -11.4 11.4 69 -16 3.1
17:45 1017 30.03 846 24.98 -11.6 11.1 69 -16.1 3
17:50 1017 30.03 846 24.98 -11.9 10.5 71 -16.2 2.9
17:55 1017 30.03 846 24.98 -12.3 9.9 72 -16.4 2.5
18:00 1017 30.03 846 24.98 -12.4 9.6 73 -16.3 2.6
18:05 1017 30.03 846 24.98 -12.5 9.6 73 -16.3 2.7
18:10 1017 30.03 846 24.98 -12.5 9.5 74 -16.3 2.7
18:15 1017 30.03 846 24.98 -12.5 9.4 73 -16.4 2.5
18:20 1017 30.03 846 24.98 -12.6 9.3 74 -16.3 2.6
18:25 1017 30.03 846 24.98 -12.9 8.7 75 -16.4 2.4
18:30 1017 30.03 846 24.98 -13.1 8.4 76 -16.5 2.3
18:35 1017 30.03 846 24.98 -13.1 8.4 77 -16.4 2.5
18:40 1017 30.03 846 24.98 -12.9 8.7 76 -16.3 2.6
18:45 1017 30.03 846 24.98 -12.9 8.9 75 -16.3 2.6
18:50 1017 30.03 846 24.98 -12.7 9.1 75 -16.3 2.7
18:55 1017 30.03 846 24.98 -12.8 9 75 -16.3 2.7
19:00 1017 30.03 846 24.98 -13 8.6 77 -16.3 2.7
19:05 1017 30.03 846 24.98 -13.2 8.2 77 -16.4 2.5
19:10 1017 30.03 846 24.98 -13.2 8.2 77 -16.5 2.3
19:15 1017 30.03 846 24.98 -13.4 8 77 -16.5 2.2
19:20 1017 30.03 846 24.98 -13.3 8.2 78 -16.3 2.6
19:25 1017 30.03 846 24.98 -13 8.6 77 -16.2 2.8
19:30 1017 30.03 846 24.98 -12.9 8.9 76 -16.2 2.8
19:35 1017 30.03 846 24.98 -12.9 8.8 76 -16.3 2.6
19:40 1017 30.03 846 24.98 -13 8.7 77 -16.2 2.9
19:45 1017 30.03 846 24.98 -13 8.7 76 -16.4 2.4
19:50 1017 30.03 846 24.98 -13.2 8.3 79 -16.1 3
19:55 1016 30 846 24.98 -13.3 8 77 -16.6 2.2
20:00 1016 30 846 24.98 -13.7 7.3 79 -16.7 2
20:05 1016 30 846 24.98 -13.8 7.1 80 -16.6 2.2
20:10 1016 30 846 24.98 -13.4 7.8 79 -16.4 2.6
20:15 1016 30 846 24.98 -13.1 8.5 78 -16.2 2.8
20:20 1016 30 845 24.95 -12.8 9 75 -16.3 2.7
20:25 1016 30 845 24.95 -12.9 8.8 77 -16.1 3
20:30 1016 30 845 24.95 -13.3 8.1 77 -16.5 2.2
20:35 1016 30 846 24.98 -13.3 8.1 78 -16.4 2.6
20:40 1016 30 846 24.98 -12.9 8.9 77 -16.1 3
20:45 1016 30 846 24.98 -12.8 9 75 -16.3 2.7
20:50 1016 30 846 24.98 -12.9 8.8 76 -16.2 2.9
20:55 1016 30 846 24.98 -12.8 8.9 77 -16.1 3
21:00 1016 30 846 24.98 -12.6 9.4 75 -16.1 3.1
21:05 1016 30 845 24.95 -12.5 9.6 75 -16.1 3.1
21:10 1016 30 845 24.95 -12.5 9.6 75 -16 3.2
21:15 1016 30 846 24.98 -12.3 9.8 74 -16.1 3
21:20 1016 30 846 24.98 -12.1 10.2 73 -16 3.2
21:25 1017 30.03 846 24.98 -12 10.4 72 -16.1 3.1
21:30 1017 30.03 846 24.98 -12.1 10.3 72 -16.2 2.9
21:35 1017 30.03 846 24.98 -12.4 9.8 73 -16.3 2.6
21:40 1017 30.03 846 24.98 -12.8 9 74 -16.6 2.2
21:45 1017 30.03 846 24.98 -12.9 8.7 74 -16.6 2.2
21:50 1017 30.03 846 24.98 -13 8.7 75 -16.6 2.2
21:55 1017 30.03 846 24.98 -13.2 8.2 77 -16.5 2.3
22:00 1017 30.03 846 24.98 -13.4 7.8 77 -16.6 2
22:05 1017 30.03 846 24.98 -13.4 7.8 78 -16.5 2.3
22:10 1017 30.03 846 24.98 -13.4 8 77 -16.5 2.2
22:15 1016 30 846 24.98 -13.4 8 79 -16.3 2.7
22:20 1016 30 846 24.98 -13.2 8.3 79 -16.1 3
22:25 1016 30 845 24.95 -12.8 9 76 -16.2 2.9
22:30 1016 30 845 24.95 -13 8.6 75 -16.5 2.3
22:35 1016 30 845 24.95 -13.4 7.9 78 -16.4 2.5
22:40 1016 30 845 24.95 -12.9 8.8 77 -16.2 2.9
22:45 1016 30 845 24.95 -12.7 9.2 77 -16 3.3
22:50 1016 30 845 24.95 -12.7 9.1 77 -16 3.3
22:55 1016 30 845 24.95 -12.5 9.5 75 -16 3.2
23:00 1016 30 845 24.95 -12.5 9.5 76 -15.8 3.5
23:05 1016 30 845 24.95 -12.3 9.9 77 -15.6 3.9
23:10 1016 30 845 24.95 -11.3 11.7 73 -15.3 4.5
23:15 1015 29.97 845 24.95 -11 12.2 71 -15.3 4.5
23:20 1015 29.97 844 24.92 -11.3 11.6 73 -15.2 4.7
23:25 1015 29.97 844 24.92 -11.4 11.4 76 -14.9 5.3
23:30 1015 29.97 845 24.95 -11 12.3 72 -15 4.9
23:35 1015 29.97 845 24.95 -11.7 11 74 -15.4 4.2
23:40 1015 29.97 845 24.95 -11.5 11.3 74 -15.3 4.5
23:45 1015 29.97 845 24.95 -10.7 12.8 72 -14.8 5.3
23:50 1015 29.97 845 24.95 -10.6 13 71 -14.9 5.2
23:55 1016 30 845 24.95 -10.8 12.5 71 -15.2 4.7
24:00 1016 30 845 24.95 -11 12.2 71 -15.2 4.6